TIME,DELAY(SENSOR),PRES,OXYGEN,RAWTEMP,T(OPTODE),TCPHASE,FLUOR,BETA(BETA700),BETA(BETA412),BETA(BETA440),CDOM,C(CSC),ED(ED411.90),ED(ED443.80),ED(ED489.40),ED(ED554.70),LU(LU412.20),LU(LU443.80),LU(LU489.40),LU(LU555.00),COMP,TILTX,TILTY,CHECK
1352497694,5804,842.2800292968750000,163.2859954833984400,405.6306152343750000,10.4309997558593750,38.8134498596191400,51,104,63,62,69,13603,2146963328,2147514669,2147284608,2147499958,2147088448,2146933110,2147699337,2147122112,3100,-1,8,18786
1352501290,5805,957.5300292968750000,188.1967926025390600,484.2446899414062500,8.0174751281738280,38.3768386840820300,52,101,62,61,70,13600,2146964772,2147520713,2147293513,2147515346,2147095003,2146921408,2147719094,2147122057,2244,-1,8,412
1352504890,5807,970.4400024414062000,199.7913970947265600,498.4038085937500000,7.5790038108825680,37.8835906982421900,53,101,63,60,70,13594,2146964900,2147519259,2147295762,2147518390,2147089746,2146925357,2147717586,2147118509,79,0,8,21639
1352508490,5806,977.7100219726562000,201.8262939453125000,499.7840881347656000,7.5361928939819340,37.7832489013671900,52,100,63,60,69,13595,2146965275,2147521152,2147294893,2147521197,2147088694,2146921609,2147719597,2147121142,2870,-1,8,65157
1352512090,5806,984.5300292968750000,202.3813018798828000,500.2078857421875000,7.5230431556701660,37.7567596435546900,52,104,62,60,70,13592,2146963593,2147515355,2147292160,2147519707,2147090523,2146926144,2147719716,2147119049,2949,-1,8,36878
1352515690,5805,991.7500000000000000,201.9028930664062500,499.2962951660156000,7.5513229370117190,37.7701187133789060,51,102,63,61,69,13591,2146965430,2147516736,2147294372,2147519094,2147092086,2146923309,2147717833,2147119213,3155,-1,8,16022
1352519290,5805,995.1099853515625000,201.4024963378906200,499.2862854003906000,7.5516338348388670,37.8006095886230500,52,103,63,61,70,13589,2146965504,2147517238,2147292800,2147517458,2147091684,2146924608,2147714825,2147123419,3089,-1,8,13570
1352522890,5805,994.4699707031250000,201.6607055664062500,499.8676147460937500,7.5336031913757320,37.7947692871093750,52,102,63,61,70,13588,2146966683,2147520064,2147294665,2147518628,2147088246,2146920969,2147719533,2147121005,3238,-1,8,7228
1352526490,5807,999.6099853515625000,201.4685974121093800,499.3342895507812500,7.5501451492309570,37.7971611022949200,52,103,63,62,69,13591,2146962596,2147520649,2147294363,2147516809,2147092982,2146925814,2147715931,2147119204,3265,-1,8,1305
1352530090,5804,1003.1199951171875000,201.4057006835937500,499.1904907226562500,7.5546050071716310,37.7981681823730500,52,101,62,61,70,13589,2146962642,2147516781,2147293732,2147517604,2147091693,2146921682,2147717741,2147121965,3203,-1,8,11118
1352533690,5804,999.4199829101562000,201.1903991699218800,499.9157104492187500,7.5321068763732910,37.8245887756347660,53,102,63,61,70,13587,2146963501,2147518418,2147294957,2147521910,2147092818,2146920530,2147720091,2147118838,3232,-1,8,46572
1352537290,5807,1001.5399780273438000,201.6739044189453000,500.1611022949219000,7.5244951248168945,37.7988014221191400,53,104,62,61,69,13588,2146964352,2147515757,2147297508,2147517924,2147095021,2146923611,2147719195,2147119414,2835,-1,8,51996
1352540890,5804,1002.4500122070312000,201.1833953857422000,499.8539123535156000,7.5340270996093750,37.8232612609863300,52,104,61,60,69,13586,2146966857,2147516269,2147295140,2147517348,2147091858,2146923026,2147716361,2147121225,3486,-1,8,16565
1352544490,5806,1001.0599975585938000,202.2068939208984400,500.9393005371094000,7.5003490447998050,37.7798805236816400,52,102,63,60,70,13586,2146964754,2147519515,2147292891,2147518784,2147091318,2146924973,2147717092,2147121188,3026,-1,8,59315
1352548090,5805,999.5399780273438000,202.9570007324218800,502.0885009765625000,7.4646840095520020,37.7542800903320300,53,101,62,61,69,13587,2146961654,2147517476,2147297051,2147518848,2147090578,2146918592,2147721225,2147123081,3352,-1,8,16886
1352551690,5805,998.6300048828125000,203.1380004882812500,502.5892944335937500,7.4491400718688965,37.7520408630371100,52,101,63,60,69,13585,2146965430,2147516361,2147291437,2147516964,2147091108,2146921325,2147720118,2147121344,3199,-1,8,48249
1352555290,5757,998.0700073242188000,203.3851013183593800,502.5961914062500000,7.4489269256591800,37.7367095947265600,52,104,62,62,69,13586,2146964873,2147517778,2147294162,2147517494,2147090468,2146922066,2147722578,2147124004,2955,-1,8,40246
1352558890,5804,993.0800170898438000,202.3829956054687500,504.5198974609375000,7.3892011642456055,37.8318290710449200,52,101,62,61,70,13582,2146961106,2147517549,2147296402,2147520164,2147090697,2146920246,2147723117,2147116571,578,0,8,41820
1352562490,5807,992.8099975585938000,203.4815063476562500,506.5078125000000000,7.3274540901184080,37.7995910644531250,52,103,63,60,70,13583,2146964946,2147516425,2147297984,2147521856,2147093997,2146925796,2147722212,2147120658,243,0,8,53749
1352566090,5808,997.2199707031250000,204.1340942382812500,506.1087036132812500,7.3398518562316895,37.7530403137207000,53,101,61,60,69,13560,2146962779,2147518299,2147299492,2147519936,2147091830,2146922267,2147723501,2147118244,18,0,8,64327
1352569690,5806,995.8599853515625000,205.3591003417968800,505.8572998046875000,7.3476619720458980,37.6746406555175800,52,100,62,61,70,13562,2146964443,2147516937,2147294729,2147516141,2147093714,2146920466,2147722706,2147118016,3043,0,8,59645
1352573290,5805,999.1199951171875000,205.6614990234375000,505.8283996582031000,7.3485589027404785,37.6566390991210940,52,104,62,60,69,13555,2146961453,2147517430,2147293531,2147521024,2147091117,2146926674,2147718966,2147117522,3264,-1,8,8775
1352576890,5804,996.3400268554688000,205.9582061767578000,506.1719970703125000,7.3378839492797850,37.6444206237793000,52,99,62,61,69,13559,2146964772,2147517796,2147292973,2147519652,2147088182,2146926134,2147724480,2147119963,2455,-1,8,2181
1352580490,5806,996.3800048828125000,206.2552032470703000,506.3992919921875000,7.3308248519897460,37.6311187744140600,52,101,63,61,69,13560,2146963757,2147517933,2147296594,2147520192,2147091620,2146924361,2147722368,2147117403,3102,-1,8,19735
1352584090,5804,996.2500000000000000,206.4387969970703000,506.8699951171875000,7.3161997795104980,37.6282615661621100,52,106,62,61,69,13553,2146966381,2147519460,2147293595,2147517997,2147093092,2146922587,2147719515,2147119634,3207,-1,8,31298
1352587690,5803,1002.4799804687500000,205.2283935546875000,504.9518127441406000,7.3757858276367190,37.6669883728027340,52,106,62,61,70,13550,2146966500,2147515593,2147299382,2147519113,2147093504,2146923894,2147721554,2147122806,2995,-1,8,1527
1352591290,5804,1003.7700195312500000,204.8325958251953000,504.4522094726562500,7.3913021087646480,37.6814804077148440,52,101,62,61,69,13551,2146964370,2147518601,2147295725,2147518381,2147092699,2146920338,2147718683,2147121554,3026,-1,8,25004
1352594890,5806,1005.1900024414062000,203.1544036865234400,503.8837890625000000,7.4089541435241700,37.7741012573242200,53,100,62,60,69,13555,2146962962,2147513280,2147296283,2147518509,2147095396,2146925732,2147720795,2147121563,3044,-1,8,10150
1352598490,5806,1002.5800170898438000,203.9606933593750000,503.8942871093750000,7.4086270332336430,37.7250709533691400,53,99,62,60,69,13549,2146962258,2147519643,2147297956,2147521225,2147092196,2146925696,2147720941,2147121380,2475,-1,8,55749
1352602090,5807,1001.5800170898438000,203.5756988525390600,504.1918945312500000,7.3993849754333500,37.7537689208984400,52,100,62,61,69,13549,2146964955,2147515611,2147296365,2147518592,2147091858,2146920009,2147720009,2147118701,3031,-1,8,61215
1352605690,5806,1006.3099975585938000,203.2406005859375000,504.3102111816406000,7.3957109451293945,37.7757911682128900,52,101,62,61,70,13553,2146963008,2147514660,2147296265,2147517732,2147092141,2146924059,2147719286,2147121499,3078,-1,8,10762
1352609290,5806,1004.5700073242188000,202.5549011230468800,503.7672119140625000,7.4125719070434570,37.8080215454101560,52,99,62,60,69,13548,2146963730,2147517723,2147295725,2147520137,2147093056,2146922523,2147719497,2147121728,201,0,8,63849
1352612890,5807,1007.3599853515625000,202.0462036132812500,503.6130065917969000,7.4173598289489750,37.8359794616699200,52,100,63,60,70,13542,2146963776,2147519780,2147297837,2147520749,2147091547,2146919241,2147718994,2147120740,27,-1,8,45193
1352616490,5807,1007.2700195312500000,202.3155975341797000,503.5705871582031000,7.4186758995056150,37.8195114135742200,53,99,62,61,69,13542,2146962925,2147517970,2147295862,2147516745,2147092982,2146928530,2147718692,2147118080,396,-1,8,60844
1352620090,5806,1004.5000000000000000,202.9776000976562500,504.3103942871094000,7.3957052230834960,37.7919998168945300,52,100,63,61,70,13541,2146966226,2147516480,2147292827,2147521078,2147091126,2146924562,2147722907,2147118756,236,0,8,22960
1352623690,5806,1003.1799926757812000,204.1744995117187500,505.7892150878906000,7.3497781753540040,37.7451515197753900,52,100,62,59,70,13545,2146965385,2147516891,2147294710,2147519149,2147089088,2146926208,2147720310,2147121435,3206,-1,8,1593
1352627290,5809,1002.4799804687500000,203.8166961669922000,505.6744995117187500,7.3533411026000980,37.7650108337402340,52,101,62,60,69,13543,2146963465,2147517001,2147295981,2147521033,2147089371,2146918491,2147722605,2147120027,47,-1,8,17498
1352630890,5806,1001.4500122070312000,204.2686004638672000,505.9722900390625000,7.3440899848937990,37.7430000305175800,52,100,63,60,69,13541,2146963849,2147514834,2147298752,2147520859,2147089444,2146924836,2147722066,2147120566,3356,-1,8,51064
1352634490,5809,1000.5300292968750000,202.6504058837890600,505.9808044433594000,7.3438239097595215,37.8408813476562500,52,101,62,61,69,13541,2146960338,2147518363,2147296795,2147518646,2147090907,2146924717,2147720347,2147122523,3582,-1,8,63229
1352638090,5807,1001.0800170898438000,203.5780944824218800,506.4433898925781000,7.3294539451599120,37.7924003601074200,52,102,62,61,69,13539,2146965366,2147515693,2147292050,2147521920,2147090496,2146925613,2147722313,2147121252,3476,-1,8,64614
1352641690,5807,1002.5499877929688000,203.3898010253906200,506.5253906250000000,7.3269062042236330,37.8058395385742200,52,101,63,62,69,13534,2146965275,2147518180,2147297737,2147521554,2147092370,2146928685,2147722688,2147118208,80,-1,8,46459
1352642454,5804,1003.1599731445312000,203.0966033935547000,506.5440979003906000,7.3263258934021000,37.8238105773925800,51,100,62,60,69,13567,2146963538,2147518765,2147296448,2147520822,2147089462,2146927378,2147721929,2147121618,3264,-1,8,8278
